Spokane Fairchild, WA

10:22 PM PST on January 19, 2018 (GMT -0800)
Fairchild Air Force Base

Weather History for KSKA - August, 2013

Change the Weather History Date:

Monday, August 5, 2013

  Actual Average Record
Temperature  
Mean Temperature 71 °F -  
Max Temperature 87 °F 83 °F 100 °F (1998)
Min Temperature 56 °F 56 °F 44 °F (2002)
Cooling Degree Days 6    
Growing Degree Days 21 (Base 50)    
Moisture  
Dew Point 52 °F    
Average Humidity 54    
Maximum Humidity 89    
Minimum Humidity 27    
Precipitation  
Precipitation 0.00 in - - ()
Sea Level Pressure  
Sea Level Pressure 29.95 in    
Wind  
Wind Speed 6 mph (North)    
Max Wind Speed 16 mph    
Max Gust Speed 22 mph    
Visibility 10 miles    
Events      
Averages and records for this station are not official NWS values.
T = Trace of Precipitation, MM = Missing Value Source: NWS Daily Summary

Daily Weather History Graph

Daily Weather History Graph

Search for Another Location

Airport or City:

Trip Planner

Search our weather history database for the weather conditions in past years. The results will help you decide how hot, cold, wet, or windy it might be!

Date:

Astronomy

Aug. 05, 2013 Rise Set
Actual Time 5:33 AM PDT 8:18 PM PDT
Civil Twilight 4:58 AM PDT 8:53 PM PDT
Nautical Twilight 4:13 AM PDT 9:38 PM PDT
Astronomical Twilight 3:19 AM PDT 10:31 PM PDT
Moon 4:34 AM PDT (8/5) 7:18 PM PDT (8/5)
Length of Visible Light 15h 55m
Length of Day
14h 45m
Waning Crescent, 1% of the Moon is Illuminated
Aug 5
Waning Crescent
Aug 6
New
Aug 14
First Quarter
Aug 20
Full
Aug 28
Last Quarter

Hourly Weather History & Observations

Time (PDT) Temp. Dew Point Humidity Pressure Visibility Wind Dir Wind Speed Gust Speed Precip Events Conditions
12:58 AM 61.7 °F 52.5 °F 72% 29.98 in 10.0 mi North 5.8 mph - N/A   Clear
1:58 AM 60.6 °F 52.7 °F 75% 29.98 in 10.0 mi North 6.9 mph - N/A   Clear
2:58 AM 57.9 °F 52.9 °F 83% 29.97 in 10.0 mi North 3.5 mph - N/A   Clear
3:58 AM 58.5 °F 53.2 °F 83% 29.96 in 10.0 mi NE 4.6 mph - N/A   Clear
4:58 AM 56.7 °F 53.2 °F 88% 29.97 in 10.0 mi North 6.9 mph - N/A   Clear
5:58 AM 56.7 °F 53.4 °F 89% 29.98 in 10.0 mi NNE 5.8 mph - N/A   Clear
6:58 AM 61.2 °F 55.0 °F 80% 29.99 in 10.0 mi NNE 5.8 mph - N/A   Clear
7:58 AM 63.7 °F 55.6 °F 75% 29.99 in 10.0 mi NNE 6.9 mph - N/A   Clear
8:58 AM 66.9 °F 56.1 °F 68% 29.99 in 10.0 mi NNE 6.9 mph - N/A   Clear
9:55 AM 70.7 °F 55.0 °F 58% 29.99 in 10.0 mi Variable 4.6 mph - N/A   Clear
9:58 AM 70.7 °F 55.0 °F 58% 29.99 in 10.0 mi Variable 4.6 mph - N/A   Clear
10:58 AM 75.0 °F 54.7 °F 49% 29.99 in 10.0 mi Variable 2.3 mph - N/A   Clear
11:55 AM 79.9 °F 53.8 °F 40% 29.98 in 10.0 mi WNW 6.9 mph - N/A   Clear
12:55 PM 82.6 °F 51.4 °F 34% 29.96 in 10.0 mi SSW 4.6 mph - N/A   Partly Cloudy
1:58 PM 83.1 °F 48.6 °F 30% 29.94 in 10.0 mi West 8.1 mph - 0.00 in   Partly Cloudy
2:58 PM 84.9 °F 49.6 °F 29% 29.94 in 10.0 mi WSW 4.6 mph - N/A   Mostly Cloudy
3:58 PM 83.7 °F 48.9 °F 30% 29.92 in 10.0 mi Variable 4.6 mph - N/A   Partly Cloudy
4:58 PM 86.4 °F 49.1 °F 27% 29.90 in 10.0 mi SW 8.1 mph - N/A   Partly Cloudy
5:58 PM 84.4 °F 47.5 °F 28% 29.90 in 10.0 mi NNW 11.5 mph - N/A   Scattered Clouds
6:06 PM 84.2 °F 48.2 °F 29% 29.92 in 10.0 mi North 16.1 mph 21.9 mph N/A   Mostly Cloudy
6:58 PM 82.2 °F 48.2 °F 30% 29.90 in 10.0 mi North 8.1 mph - N/A   Clear
7:58 PM 79.3 °F 48.4 °F 34% 29.90 in 10.0 mi North 3.5 mph - N/A   Clear
8:58 PM 75.0 °F 49.3 °F 40% 29.92 in 10.0 mi NE 3.5 mph - N/A   Clear
9:58 PM 70.9 °F 49.8 °F 47% 29.92 in 10.0 mi Calm Calm - N/A   Scattered Clouds
10:58 PM 66.2 °F 50.4 °F 57% 29.93 in 10.0 mi WSW 2.3 mph - N/A   Partly Cloudy
11:58 PM 63.5 °F 48.9 °F 59% 29.96 in 10.0 mi WSW 8.1 mph - N/A   Clear